Regional Weather Roundup
Issued by NWS

Home | Current Version | Previous Version | Text Only | Print | Product List | Glossary Off
Versions: 1 2 3 4 5 6 7 8 9 10 11 12 13 14 15 16 17 18 19 20 21 22 23 24 25 26 27 28 29 30 31 32 33 34 35 36 37 38 39 40 41 42 43 44 45 46 47 48 49 50

692
ASUS44 KMEG 270010
RWRTN
TENNESSEE HOURLY STATE WEATHER ROUNDUP
NATIONAL WEATHER SERVICE MEMPHIS TN
700 PM CDT THU MAY 26 2016

TNZ002-004-019-021-049-052-054-088>092-270100-
WEST TENNESSEE

CITY           SKY/WX    TMP DP  RH WIND       PRES   REMARKS
MEMPHIS INTL   TSTM      77  67  71 NW3       29.94R
NWS MEMPHIS      N/A     74 N/A N/A MISG        N/A
JACKSON        CLOUDY    68  65  90 E13       30.00S
DYERSBURG      CLOUDY    68  63  83 E8        29.97R
$$

TNZ008-025-027-028-033-062-065-066-270100-
NORTH MIDDLE TENNESSEE

CITY           SKY/WX    TMP DP  RH WIND       PRES   REMARKS
NASHVILLE      CLOUDY    72  65  78 NW6       30.07R THUNDER
CLARKSVILLE    LGT RAIN  67  65  93 S5        30.05F
SMYRNA         CLOUDY    73  64  73 NW10      30.08R
CROSSVILLE     CLOUDY    71  61  70 N12G18    30.15R
$$

TNZ061-075-076-078-094-096-097-270100-
SOUTH MIDDLE TENNESSEE

CITY           SKY/WX    TMP DP  RH WIND       PRES   REMARKS
FAYETTEVILLE   PTCLDY    82  63  51 SE7       30.04R
$$

TNZ017-018-042-046-047-270100-
NORTHEAST TENNESSEE

CITY           SKY/WX    TMP DP  RH WIND       PRES   REMARKS
TRI CITIES     PTCLDY    74  63  68 CALM      30.13S
$$

TNZ012-013-036-069-073-074-270100-
CENTRAL EAST TENNESSEE

CITY           SKY/WX    TMP DP  RH WIND       PRES   REMARKS
KNOXVILLE      PTCLDY    79  62  56 NE7       30.09R
OAK RIDGE      CLOUDY    79  63  57 E3        30.11R
$$

TNZ083-085-099-270100-
SOUTHEAST TENNESSEE

CITY           SKY/WX    TMP DP  RH WIND       PRES   REMARKS
CHATTANOOGA    PTCLDY    86  57  37 S3        30.05R
$$

SKY/WX REPORTED AS FAIR MEANS FEW OR NO CLOUDS BELOW
12 THOUSAND FEET.





USA.gov is the U.S. government's official web portal to all federal, state and local government web resources and services.